Le nostre stazioni meteo in Italia

Pubblicità
Il mio iltempo24.it
Lons-Le-Saunier, Francia (7390): Temperatura & dewpoint: 13.04.2019 17:00:00 - 19.04.2019 17:00:00 (CEST)Lons-Le-Saunier, Francia (7390): velocità del vento & gusts: 13.04.2019 17:00:00 - 19.04.2019 17:00:00 (CEST)Lons-Le-Saunier, Francia (7390): direzione del vento: 13.04.2019 17:00:00 - 19.04.2019 17:00:00 (CEST)Lons-Le-Saunier, Francia (7390): precipitazioni: 13.04.2019 17:00:00 - 19.04.2019 17:00:00 (CEST)
Data & Tempo tt [°C] td [°C] ff [km/h] ff [kn] fx [km/h] fx [kn] dd rr [mm]
19.04.2019 17:00:00 - - - - - - - -
19.04.2019 16:00:00 22,4 7,8 9 5 26 14 NNO 0,0
19.04.2019 15:00:00 22,3 8,0 8 4 16 9 O 0,0
19.04.2019 14:00:00 21,7 9,6 8 4 18 10 SO -
19.04.2019 13:00:00 20,7 5,9 8 4 18 10 SO 0,0
19.04.2019 12:00:00 19,9 8,2 11 6 21 11 SO 0,0
19.04.2019 11:00:00 19,0 7,7 5 3 16 9 OSO 0,0
19.04.2019 10:00:00 18,4 4,9 5 3 11 6 SSO 0,0
19.04.2019 09:00:00 15,8 7,5 8 4 13 7 SE 0,0
19.04.2019 08:00:00 13,4 6,7 9 5 15 8 ESE -
19.04.2019 07:00:00 13,1 5,7 11 6 16 9 SE 0,0
19.04.2019 06:00:00 13,4 5,3 8 4 15 8 ESE 0,0
19.04.2019 05:00:00 13,7 5,1 9 5 15 8 SE 0,0
19.04.2019 04:00:00 13,9 5,0 11 6 16 9 SE 0,0
19.04.2019 03:00:00 14,8 5,0 11 6 18 10 S 0,0
19.04.2019 02:00:00 15,0 5,5 9 5 22 12 SE -
19.04.2019 01:00:00 14,0 7,1 11 6 18 10 SE 0,0
19.04.2019 00:00:00 14,4 8,6 9 5 11 6 ESE 0,0
18.04.2019 23:00:00 15,1 9,5 9 5 13 7 SE 0,0
18.04.2019 22:00:00 16,0 9,9 8 4 13 7 SE 0,0
18.04.2019 21:00:00 18,2 9,3 4 2 9 5 SO 0,0
18.04.2019 20:00:00 19,2 9,4 4 2 13 7 O -
18.04.2019 19:00:00 20,4 10,8 8 4 15 8 O 0,0
18.04.2019 18:00:00 21,2 10,4 8 4 13 7 SO 0,0
18.04.2019 17:00:00 21,1 10,6 4 2 15 8 N 0,0
18.04.2019 16:00:00 20,9 10,4 5 3 18 10 OSO 0,0
18.04.2019 15:00:00 20,5 10,9 8 4 18 10 NNO 0,0
18.04.2019 14:00:00 20,1 9,6 9 5 18 10 OSO -
18.04.2019 13:00:00 19,3 9,5 8 4 16 9 NE 0,0
18.04.2019 12:00:00 18,2 9,0 4 2 13 7 N 0,0
18.04.2019 11:00:00 17,2 8,3 4 2 11 6 O 0,0
18.04.2019 10:00:00 16,5 8,5 0 0 9 5 N 0,0
18.04.2019 09:00:00 13,6 7,4 5 3 13 7 ESE 0,0
18.04.2019 08:00:00 10,6 6,9 8 4 9 5 E -
18.04.2019 07:00:00 10,2 6,5 4 2 13 7 ONO 0,0
18.04.2019 06:00:00 11,3 6,6 9 5 15 8 ESE 0,0
18.04.2019 05:00:00 11,2 6,7 11 6 13 7 ESE 0,0
18.04.2019 04:00:00 11,9 6,4 9 5 15 8 ESE 0,0
18.04.2019 03:00:00 11,9 6,8 9 5 13 7 SE 0,0
18.04.2019 02:00:00 12,8 6,8 8 4 13 7 SE -
18.04.2019 01:00:00 13,0 7,2 9 5 24 13 SE 0,0
18.04.2019 00:00:00 12,2 7,3 11 6 15 8 ESE 0,0
17.04.2019 23:00:00 12,8 7,7 9 5 15 8 ESE 0,0
17.04.2019 22:00:00 14,4 7,9 8 4 9 5 SE 0,0
17.04.2019 21:00:00 15,9 7,6 5 3 13 7 NNO 0,0
17.04.2019 20:00:00 16,7 7,9 9 5 18 10 NO -
17.04.2019 19:00:00 17,9 8,7 11 6 21 11 NO 0,0
17.04.2019 18:00:00 19,0 8,6 13 7 18 10 NO 0,0
17.04.2019 17:00:00 19,2 9,7 9 5 18 10 NNO 0,0
17.04.2019 16:00:00 18,4 9,5 11 6 18 10 NNO 0,0
17.04.2019 15:00:00 18,2 9,3 8 4 26 14 NO 0,0
17.04.2019 14:00:00 17,6 9,0 9 5 24 13 NNO -
17.04.2019 13:00:00 17,1 9,3 5 3 15 8 NNE 0,0
17.04.2019 12:00:00 16,2 8,9 4 2 15 8 NO 0,0
17.04.2019 11:00:00 15,0 9,4 0 0 11 6 N 0,0
17.04.2019 10:00:00 14,2 8,6 2 1 9 5 NNE 0,0
17.04.2019 09:00:00 11,7 7,6 4 2 9 5 ESE 0,0
17.04.2019 08:00:00 8,7 6,7 5 3 13 7 ESE -
17.04.2019 07:00:00 7,5 6,0 9 5 13 7 ESE 0,0
17.04.2019 06:00:00 8,3 6,4 8 4 9 5 ESE 0,0
17.04.2019 05:00:00 9,1 6,7 8 4 9 5 SE 0,0
17.04.2019 04:00:00 9,5 7,3 8 4 11 6 SE 0,0
17.04.2019 03:00:00 9,6 8,2 9 5 13 7 SE 0,2
17.04.2019 02:00:00 10,2 8,0 8 4 11 6 SSE -
17.04.2019 01:00:00 10,1 8,0 5 3 16 9 SE 0,0
17.04.2019 00:00:00 10,1 7,7 8 4 13 7 SSE 0,0
16.04.2019 23:00:00 10,2 7,8 4 2 13 7 S 0,4
16.04.2019 22:00:00 10,9 7,4 8 4 11 6 S 0,0
16.04.2019 21:00:00 11,2 7,5 5 3 15 8 S 0,0
16.04.2019 20:00:00 11,2 8,6 5 3 18 10 S -
16.04.2019 19:00:00 10,6 9,0 11 6 26 14 SE 0,4
16.04.2019 18:00:00 11,3 8,0 16 9 29 16 S 0,0
16.04.2019 17:00:00 10,6 8,7 16 9 34 18 S 0,0
16.04.2019 16:00:00 11,2 8,4 15 8 37 20 S 0,2
16.04.2019 15:00:00 11,5 8,0 22 12 44 24 SSO 0,0
16.04.2019 14:00:00 11,4 6,7 26 14 48 26 SSO -
16.04.2019 13:00:00 11,8 6,7 24 13 44 24 SSO 0,0
16.04.2019 12:00:00 11,8 7,3 24 13 42 23 S 0,0
16.04.2019 11:00:00 10,7 5,9 26 14 52 28 S 0,0
16.04.2019 10:00:00 10,0 6,3 22 12 46 25 S 0,6
16.04.2019 09:00:00 9,4 6,1 24 13 57 31 S 0,0
16.04.2019 08:00:00 11,8 3,5 28 15 50 27 S -
16.04.2019 07:00:00 11,9 3,4 22 12 50 27 S 0,0
16.04.2019 06:00:00 12,3 3,0 28 15 48 26 S 0,0
16.04.2019 05:00:00 11,8 3,3 18 10 41 22 S 0,0
16.04.2019 04:00:00 11,8 3,8 26 14 48 26 S 0,0
16.04.2019 03:00:00 10,7 5,2 13 7 26 14 S 0,0
16.04.2019 02:00:00 11,1 5,4 15 8 37 20 S -
16.04.2019 01:00:00 11,5 4,9 21 11 42 23 S 0,0
16.04.2019 00:00:00 11,9 4,6 21 11 41 22 S 0,0
15.04.2019 23:00:00 10,6 2,7 9 5 16 9 SE 0,0
15.04.2019 22:00:00 11,3 3,3 8 4 11 6 SE 0,0
15.04.2019 21:00:00 13,6 2,5 5 3 11 6 S 0,0
15.04.2019 20:00:00 14,8 1,7 4 2 11 6 O -
15.04.2019 19:00:00 16,6 2,9 5 3 13 7 NO 0,0
15.04.2019 18:00:00 17,0 2,6 5 3 13 7 NO 0,0
15.04.2019 17:00:00 17,1 3,7 5 3 21 11 OSO 0,0
15.04.2019 16:00:00 16,4 2,8 8 4 22 12 SO 0,0
15.04.2019 15:00:00 15,8 3,9 4 2 15 8 SSE 0,0
15.04.2019 14:00:00 13,7 2,3 4 2 13 7 NNE -
15.04.2019 13:00:00 11,8 2,5 4 2 15 8 E 0,0
15.04.2019 12:00:00 9,6 0,7 8 4 18 10 OSO 0,0
15.04.2019 11:00:00 7,6 2,7 9 5 18 10 OSO 0,0
15.04.2019 10:00:00 4,7 1,2 11 6 18 10 OSO 0,0
15.04.2019 09:00:00 2,7 0,4 11 6 15 8 SSO 0,0
15.04.2019 08:00:00 1,9 -0,7 5 3 11 6 ESE -
15.04.2019 07:00:00 0,6 -1,3 5 3 13 7 E 0,0
15.04.2019 06:00:00 0,1 -1,3 8 4 11 6 ESE 0,0
15.04.2019 05:00:00 0,5 -1,3 8 4 8 4 SE 0,0
15.04.2019 04:00:00 0,7 -0,5 4 2 9 5 E 0,0
15.04.2019 03:00:00 1,3 -0,2 5 3 9 5 N 0,0
15.04.2019 02:00:00 2,1 -0,2 4 2 15 8 NNO -
15.04.2019 01:00:00 2,5 -0,3 11 6 22 12 NNE 0,0
15.04.2019 00:00:00 3,5 -0,3 13 7 24 13 N 0,0
14.04.2019 23:00:00 4,0 -0,8 13 7 22 12 NNE 0,0
14.04.2019 22:00:00 4,9 -0,7 16 9 35 19 NNE 0,0
14.04.2019 21:00:00 6,0 -1,0 22 12 41 22 NE 0,0
14.04.2019 20:00:00 7,4 -1,1 18 10 39 21 N -
14.04.2019 19:00:00 8,9 -1,3 18 10 39 21 N 0,0
14.04.2019 18:00:00 9,4 -1,7 22 12 39 21 N 0,0
14.04.2019 17:00:00 9,5 -1,3 22 12 37 20 N 0,0
14.04.2019 16:00:00 9,0 -1,7 24 13 41 22 N 0,0
14.04.2019 15:00:00 8,7 -1,4 22 12 37 20 N 0,0
14.04.2019 14:00:00 8,5 -1,3 16 9 41 22 N -
14.04.2019 13:00:00 7,1 -0,9 24 13 39 21 NNO 0,0
14.04.2019 12:00:00 6,6 -1,1 18 10 31 17 N 0,0
14.04.2019 11:00:00 4,7 -1,1 15 8 26 14 N 0,0
14.04.2019 10:00:00 2,7 -1,1 11 6 18 10 NO 0,0
14.04.2019 09:00:00 0,4 -2,3 8 4 15 8 N 0,0
14.04.2019 08:00:00 -1,6 -4,0 8 4 15 8 NNO -
14.04.2019 07:00:00 -2,2 -4,5 8 4 13 7 NNO 0,0
14.04.2019 06:00:00 -1,4 -4,4 8 4 18 10 NNO 0,0
14.04.2019 05:00:00 -0,3 -4,4 15 8 18 10 NE 0,0
14.04.2019 04:00:00 -0,3 -4,0 8 4 16 9 NE 0,0
14.04.2019 03:00:00 1,2 -4,5 5 3 21 11 NE 0,0
14.04.2019 02:00:00 2,2 -3,7 11 6 21 11 N -
14.04.2019 01:00:00 3,1 -3,9 11 6 24 13 N 0,0
14.04.2019 00:00:00 3,2 -4,1 18 10 29 16 NE 0,0
13.04.2019 23:00:00 3,6 -3,9 15 8 37 20 N 0,0
13.04.2019 22:00:00 4,8 -2,8 18 10 37 20 NNE 0,0
13.04.2019 21:00:00 5,7 -2,4 16 9 29 16 NNE 0,0
13.04.2019 20:00:00 6,7 -2,7 13 7 22 12 NNE -
13.04.2019 19:00:00 8,4 -1,4 15 8 28 15 ENE 0,0
13.04.2019 18:00:00 8,4 -1,4 16 9 35 19 N 0,0
13.04.2019 17:00:00 9,1 0,5 16 9 34 18 NNO 0,0

tt = Temperatura
td = dewpoint
ff = velocità del vento
fx = gusts
dd = direzione del vento
rr = precipitazioni

Stazioni seguenti

WeatherPro
AMSI
MeteoEarth